Weather History for Jaipur, India

Change the Weather History Date:

Saturday, November 3, 2012

  Actual Average Record
Temperature  
Mean Temperature 72 °F -  
Max Temperature 84 °F - - ()
Min Temperature 59 °F - - ()
Cooling Degree Days 6    
Growing Degree Days 22 (Base 50)    
Moisture  
Dew Point 51 °F    
Average Humidity 48    
Maximum Humidity 72    
Minimum Humidity 25    
Precipitation  
Precipitation 0.00 in - - ()
Sea Level Pressure  
Sea Level Pressure 29.93 in    
Wind  
Wind Speed 1 mph ()    
Max Wind Speed 8 mph    
Max Gust Speed -    
Visibility 1.1 miles    
Events      
T = Trace of Precipitation, MM = Missing Value Source: Averaged Metar Reports

Daily Weather History Graph

Daily Weather History Graph

Search for Another Location

Airport:

Trip Planner

Search our weather history database for the weather conditions in past years. The results will help you decide how hot, cold, wet, or windy it might be!

Date:

Astronomy

Nov. 03, 2012 Rise Set
Actual Time 6:37 AM IST 5:42 PM IST
Civil Twilight 6:13 AM IST 6:06 PM IST
Nautical Twilight 5:46 AM IST 6:33 PM IST
Astronomical Twilight 5:18 AM IST 7:01 PM IST
Moon 9:07 PM IST (11/3) 10:12 AM IST (11/3)
Length of Visible Light 11h 52m
Length of Day
11h 04m
Waning Gibbous, 83% of the Moon is Illuminated
Nov 3
Waning Gibbous
Nov 7
Last Quarter
Nov 14
New
Nov 20
First Quarter
Nov 28
Full

Hourly Weather History & Observations

Time (IST) Temp. Heat Index Dew Point Humidity Pressure Visibility Wind Dir Wind Speed Gust Speed Precip Events Conditions
12:00 AM 68.0 °F - 50.0 °F 52% 29.92 in 1.2 mi Calm Calm - N/A   Smoke
1:00 AM 68.0 °F - 50.0 °F 52% 29.92 in 1.2 mi Calm Calm - N/A   Smoke
2:00 AM 66.2 °F - 50.0 °F 56% 29.92 in 1.2 mi Calm Calm - N/A   Smoke
2:30 AM 64 °F - 52 °F 56% 29.87 in 1 mi Calm Calm - -   Smoke
3:00 AM 66.2 °F - 50.0 °F 56% 29.89 in 1.2 mi Calm Calm - N/A   Smoke
5:00 AM 62.6 °F - 50.0 °F 63% 29.89 in 1.2 mi Calm Calm - N/A   Smoke
5:30 AM 63 °F - 53 °F 61% 29.86 in 1 mi Calm Calm - -   Smoke
6:00 AM 59.0 °F - 50.0 °F 72% 29.92 in 1.0 mi Calm Calm - N/A   Smoke
7:00 AM 60.8 °F - 50.0 °F 68% 29.95 in 0.8 mi Calm Calm - N/A   Smoke
8:00 AM 66.2 °F - 51.8 °F 60% 29.95 in 0.6 mi Calm Calm - N/A   Smoke
8:30 AM 67 °F - 56 °F 61% 29.92 in 1 mi Calm Calm - -   Smoke
9:00 AM 75.2 °F - 53.6 °F 47% 29.98 in 0.6 mi Calm Calm - N/A   Smoke
9:30 AM 77.0 °F - 53.6 °F 44% 29.98 in 0.6 mi Variable 3.5 mph - N/A   Smoke
10:00 AM 77.0 °F - 53.6 °F 44% 30.01 in 0.6 mi Variable 1.2 mph - N/A   Smoke
11:00 AM 80.6 °F 80.3 °F 53.6 °F 39% 30.01 in 0.7 mi Variable 2.3 mph - N/A   Smoke
11:30 AM 81 °F - 52 °F 25% 29.89 in 1 mi East 3.5 mph - -   Smoke
12:00 PM 80.6 °F - 51.8 °F 37% 29.98 in 0.9 mi Variable 3.5 mph - N/A   Smoke
1:00 PM 84.2 °F - 51.8 °F 33% 29.95 in 1.2 mi Variable 2.3 mph - N/A   Smoke
2:00 PM 84.2 °F - 50.0 °F 30% 29.92 in 1.6 mi NE 8.1 mph - N/A   Haze
3:00 PM 84.2 °F - 50.0 °F 30% 29.89 in 1.6 mi Variable 3.5 mph - N/A   Haze
4:00 PM 84.2 °F - 50.0 °F 30% 29.89 in 1.6 mi ENE 5.8 mph - N/A   Haze
5:00 PM 82.4 °F - 48.2 °F 30% 29.89 in 1.6 mi NE 3.5 mph - N/A   Haze
6:00 PM 77.0 °F - 50.0 °F 39% 29.89 in 1.2 mi Calm Calm - N/A   Smoke
7:00 PM 75.2 °F - 51.8 °F 44% 29.92 in 1.2 mi Calm Calm - N/A   Smoke
8:00 PM 71.6 °F - 51.8 °F 50% 29.95 in 1.2 mi Calm Calm - N/A   Smoke
9:00 PM 69.8 °F - 51.8 °F 53% 29.95 in 1.2 mi Calm Calm - N/A   Smoke
10:00 PM 69.8 °F - 51.8 °F 53% 29.95 in 1.2 mi Calm Calm - N/A   Smoke
11:00 PM 66.2 °F - 51.8 °F 60% 29.95 in 1.2 mi Calm Calm - N/A   Smoke